星链-5343 (STARLINK-5343 )

导读

STARLINK-5343是美国SpaceX公司星链(Starlink)项目的低轨道通信卫星,于2023年5月14日发射升空,属于星链卫星互联网组网部署的组成部分。星链项目旨在通过数千颗低轨卫星构建全球覆盖的高速互联网,为偏远地区、海上和空中提供宽带接入服务。截至2026年,该卫星已在轨运行近3年,助力星链完成全球网络覆盖,同时也引发太空轨道拥挤与天文观测干扰的讨论。

基本信息
目录编号:
56514
目录名称:
STARLINK-5343
国际标识:
2023-065M
轨道中心:
EARTH
卫星名称:
星链-5343
卫星全名:
星链-5343 (STARLINK-5343 )
卫星状态:
已陨落 最后检测时间 2023-09-04
发射日期:
2023-05-14 UTC
国别 :
美国 (US)
星等 :
--
轨道信息
数据来源 国际轨道数据
星历时间: 2023-09-04T18:50:19+0800
轨道信息已过期1057天
半长轴: 6584.794km
偏心率: 0.0013019
轨道倾角: 42.989°
近地点辐角 260.824°
升交点赤经 113.225°
平近点角 236.989°
近地点: 198.086km
远地点: 215.232km
周期: 88.628分钟
每日圈数: 16.247611
详细信息
固有亮度:
5
最大亮度:
2.5
卫星平台:
Starlink v1.5
覆盖范围:
全球
运营商:
太空探索技术公司
运营商所在国:
美国
制造商(研发单位):
太空探索技术公司
制造商所在国:
美国
使用方式:
暂无
卫星简介
星链(Starlink)计划是由太空探索技术公司(SpaceX)提出的一个巨型低轨卫星互联网星座项目,计划在2019年至2024年间在太空搭建由约1.2万颗卫星组成的“星链”网络,其中1584颗将部署在地球上空550千米处的近地轨道,并从2020年开始工作。该卫星已陨落。